Weather Roundup
Issued by NWS

Home | Current Version | Previous Version | Graphics & Text | Print | Product List | Glossary Off
Versions: 1 2 3 4 5 6 7 8 9 10 11 12 13 14 15 16 17 18 19 20 21 22 23 24 25 26 27 28 29 30 31 32 33 34 35 36 37 38 39 40 41 42 43 44 45 46 47 48 49 50

000
NZUS93 KARX 231710
HRRWXR

CURRENT HOURLY OBSERVATIONS ACROSS
MUCH OF THE UPPER MISSISSIPPI VALLEY
NATIONAL WEATHER SERVICE LA CROSSE WI
1100 AM CST THU FEB 23 2017


...SOUTHEAST MINNESOTA...


CITY           SKY/WX    TMP DP  RH WIND       PRES   REMARKS
ROCHESTER      CLOUDY    35  31  85 NE15      29.87F WCI  25
ROCHESTER/MAYO CLOUDY    36  31  83 N8        29.88F WCI  30
WINONA         CLOUDY    37  32  81 N6        29.90F WCI  33
AUSTIN         CLOUDY    36  30  80 NE10      29.86F WCI  28
ALBERT LEA     CLOUDY    34  30  86 N14       29.87F WCI  24
DODGE CENTER   CLOUDY    34  30  86 NE9       29.87F WCI  26
PRESTON        CLOUDY    36  31  84 NE12      29.87S WCI  28
OWATONNA       CLOUDY    34  28  80 NE10      29.90S WCI  26
FARIBAULT      CLOUDY    34  28  80 NE9       29.92S WCI  26
$$

...ELSEWHERE IN MINNESOTA...


CITY           SKY/WX    TMP DP  RH WIND       PRES   REMARKS
MINNEAPOLIS    PTSUNNY   35  24  64 N9G24     29.93S WCI  28
INTNL FALLS    CLOUDY    23  11  60 W14G21    30.00S WCI  11
DULUTH         CLOUDY    25  21  85 NW10      29.93R WCI  15
RED WING       CLOUDY    37  27  65 NE8       29.91S WCI  31
REDWOOD FALLS  CLOUDY    33  24  69 NE8       29.92F WCI  26
MANKATO          N/A     33  28  81 NE10      29.90F WCI  25
WORTHINGTON    CLOUDY    31  26  82 NE17      29.86S WCI  19
FAIRMONT       CLOUDY    33  29  85 NE14      29.87F WCI  23
$$

...SOUTHWEST WISCONSIN...


CITY           SKY/WX    TMP DP  RH WIND       PRES   REMARKS
LA CROSSE      CLOUDY    42  32  67 N10       29.87F
PRAIRIE DU CHI CLOUDY    43  31  62 N14G20    29.82F
BOSCOBEL       CLOUDY    45  32  60 N9        29.83F
LONE ROCK      CLOUDY    44  32  62 N10       29.85S
PLATTEVILLE    CLOUDY    43  37  81 NE20      29.76F
FORT MC COY    CLOUDY    40  31  71 N13       29.89S WCI  33
CAMP DOUGLAS   PTSUNNY   41  30  65 N10       29.87R
MAUSTON-NEW LI CLOUDY    43  32  66 N7        29.85F
VIROQUA        FAIR      41  33  71 NE10      29.84S
WIS DELLS      CLOUDY    42  32  68 NE10      29.82F
$$

...ELSEWHERE IN WISCONSIN...


CITY           SKY/WX    TMP DP  RH WIND       PRES   REMARKS
MILWAUKEE      CLOUDY    42  35  76 NE15G25   29.82S
MADISON        CLOUDY    42  36  79 N17       29.81S
GREEN BAY      CLOUDY    39  32  76 N14       29.89R WCI  31
EAU CLAIRE     CLOUDY    38  29  70 N8        29.90S WCI  32
BLACK RVR FLS  CLOUDY    40  29  63 N7        29.90R
MEDFORD        CLOUDY    35  28  74 NE10      29.88R WCI  28
WAUSAU         PTSUNNY   36  26  67 NE9       29.88R WCI  29
WIS RAPIDS     CLOUDY    40  30  67 N10       29.89R WCI  33
MARSHFIELD     CLOUDY    37  28  70 N13       29.87R WCI  29
RICE LAKE      CLOUDY    33  27  77 CALM      29.94S
$$

...NORTHEAST IOWA...


CITY           SKY/WX    TMP DP  RH WIND       PRES   REMARKS
WATERLOO       CLOUDY    43  34  70 NE12      29.83R
DUBUQUE        CLOUDY    43  35  73 NE12      29.81F
DECORAH        CLOUDY    41  32  70 NE13      29.80F
MASON CITY     CLOUDY    36  32  85 NE18      29.85F WCI  26
CHARLES CITY   CLOUDY    39  37  93 NE16      29.84R WCI  30
OELWEIN        PTSUNNY   41  36  81 NE9G21    29.83R
$$

...ELSEWHERE IN IOWA...


CITY           SKY/WX    TMP DP  RH WIND       PRES   REMARKS
DES MOINES     CLOUDY    43  36  76 E14       29.79F
IOWA CITY      CLOUDY    46  37  71 VRB5      29.85R
FORT DODGE     CLOUDY    37  30  75 NE13G21   29.82F WCI  29
MARSHALLTOWN   CLOUDY    42  36  79 NE15      29.80F
CEDAR RAPIDS   CLOUDY    44  38  79 NE10      29.80S
$$

...NORTHERN ILLINOIS...


CITY           SKY/WX    TMP DP  RH WIND       PRES   REMARKS
CHICAGO-OHARE  CLOUDY    45  37  73 NE12      29.84R
CHICAGO-MIDWAY CLOUDY    48  39  71 N12       29.84R
MOLINE         CLOUDY    46  39  76 NE5       29.80S
ROCKFORD       CLOUDY    48  39  71 NE12      29.84R
PEORIA         CLOUDY    50  44  80 NE10      29.78F
$$

NOTE: "FAIR" INDICATES FEW OR NO CLOUDS BELOW 12,000 FEET WITH NO
SIGNIFICANT WEATHER AND/OR OBSTRUCTIONS TO VISIBILITY. WIND
SPEEDS ARE IN MILES-PER-HOUR.




USA.gov is the U.S. government's official web portal to all federal, state and local government web resources and services.